Location: Malcolm X Square
(37.7810°N, 122.4297°W)
Time: 23:54:38
(UTC+00:00)

Cosmos 1151 Rocket - Pass Details

Date: 13 April 2024
Orbit: 588 x 611 km, 82.5° (Epoch: 21 May)

Event Time Altitude Azimuth Distance (km) Brightness Sun altitude
Exits shadow 12:10:07 28° 276° (W) 1,139 3.9 -16.9°
Maximum altitude 12:10:23 28° 283° (WNW) 1,134 4.0 -16.8°
Drops below altitude 10° 12:14:07 10° 343° (NNW) 1,952 5.7 -16.2°
Sets 12:16:36 0° 355° (N) 2,864 6.8 -15.7°
